Back to catalog

FENGYUN 1C DEB

AliveLEO
NORAD 31997·DEBRIS·🇨🇳 China

Launched May 10, 1999 from Taiyuan Satellite Launch Center

Loading…

Next Passes (next 24 hours)

TLE

FreshSource: Space-Track

Epoch: Sep 14, 2026, 13:37 UTC

1 31997U 99025CQA 26257.56776226  .00000880  00000-0  94516-3 0  9991
2 31997 102.5086  22.6717 0283642  10.5346 350.1563 13.61627088654361

Track FENGYUN 1C DEB in real time with AllMySat

Download on the App Store